• In Czech Republic
  • List of Countries
  • For 7 days
  • Water Temperature
  • Satellite Maps
  • Weather Map
  • Weather Widgets
  • user-avatar
    Login

    Hourly Weather Ondjiwa

    Today, 20 September, Thursday

    Time Temperature Precipitation Wind Pressure Humidity
    00:00 +24°C° 0 mm 3 mps 666 mmHg 13%
    01:00 +22°C° 0 mm 4 mps 666 mmHg 12%
    02:00 +22°C° 0 mm 3 mps 666 mmHg 13%
    03:00 +21°C° 0 mm 3 mps 666 mmHg 13%
    04:00 +20°C° 0 mm 3 mps 666 mmHg 13%
    05:00 +21°C° 0 mm 4 mps 666 mmHg 13%
    06:00 +22°C° 0 mm 5 mps 667 mmHg 13%
    07:00 +23°C° 0 mm 5 mps 668 mmHg 13%
    08:00 +27°C° 0 mm 5 mps 668 mmHg 11%
    09:00 +32°C° 0 mm 5 mps 669 mmHg 10%
    10:00 +35°C° 0 mm 5 mps 669 mmHg 9%
    11:00 +37°C° 0 mm 5 mps 669 mmHg 8%
    12:00 +40°C° 0 mm 4 mps 668 mmHg 7%
    13:00 +42°C° 0 mm 4 mps 668 mmHg 6%
    14:00 +42°C° 0 mm 4 mps 667 mmHg 6%
    15:00 +41°C° 0 mm 4 mps 666 mmHg 6%
    16:00 +41°C° 0 mm 4 mps 666 mmHg 5%
    17:00 +37°C° 0 mm 3 mps 665 mmHg 7%
    18:00 +34°C° 0 mm 3 mps 665 mmHg 8%
    19:00 +30°C° 0 mm 2 mps 664 mmHg 9%
    20:00 +29°C° 0 mm 3 mps 665 mmHg 10%
    21:00 +28°C° 0 mm 3 mps 665 mmHg 10%
    22:00 +27°C° 0 mm 3 mps 665 mmHg 11%
    23:00 +26°C° 0 mm 3 mps 665 mmHg 12%

    Tomorrow, 21 September, Friday

    Time Temperature Precipitation Wind Pressure Humidity
    00:00 +26°C° 0 mm 2 mps 665 mmHg 13%
    01:00 +25°C° 0 mm 2 mps 665 mmHg 14%
    02:00 +24°C° 0 mm 2 mps 665 mmHg 15%
    03:00 +23°C° 0 mm 2 mps 665 mmHg 16%
    04:00 +23°C° 0 mm 1 mps 665 mmHg 17%
    05:00 +23°C° 0 mm 2 mps 665 mmHg 16%
    06:00 +24°C° 0 mm 2 mps 666 mmHg 16%
    07:00 +24°C° 0 mm 3 mps 666 mmHg 15%
    08:00 +28°C° 0 mm 3 mps 667 mmHg 12%
    09:00 +33°C° 0 mm 3 mps 668 mmHg 9%
    10:00 +36°C° 0 mm 4 mps 669 mmHg 6%
    11:00 +38°C° 0 mm 4 mps 668 mmHg 6%
    12:00 +40°C° 0 mm 4 mps 667 mmHg 5%
    13:00 +42°C° 0 mm 4 mps 667 mmHg 4%
    14:00 +42°C° 0 mm 4 mps 666 mmHg 4%
    15:00 +42°C° 0 mm 3 mps 666 mmHg 4%
    16:00 +40°C° 0 mm 2 mps 665 mmHg 4%
    17:00 +37°C° 0 mm 2 mps 665 mmHg 6%
    18:00 +34°C° 0 mm 2 mps 665 mmHg 7%
    19:00 +30°C° 0 mm 2 mps 664 mmHg 8%
    20:00 +29°C° 0 mm 2 mps 665 mmHg 8%
    21:00 +28°C° 0 mm 2 mps 665 mmHg 9%
    22:00 +27°C° 0 mm 2 mps 665 mmHg 10%
    23:00 +27°C° 0 mm 2 mps 665 mmHg 11%

    Day after tomorrow, 22 September, Saturday

    Time Temperature Precipitation Wind Pressure Humidity
    00:00 +26°C° 0 mm 2 mps 665 mmHg 13%
    01:00 +25°C° 0 mm 2 mps 665 mmHg 14%
    02:00 +24°C° 0 mm 3 mps 665 mmHg 16%
    03:00 +22°C° 0 mm 3 mps 665 mmHg 18%
    04:00 +21°C° 0 mm 3 mps 664 mmHg 20%
    05:00 +22°C° 0 mm 3 mps 665 mmHg 20%
    06:00 +22°C° 0 mm 3 mps 666 mmHg 19%
    07:00 +24°C° 0 mm 3 mps 666 mmHg 19%
    08:00 +28°C° 0 mm 3 mps 667 mmHg 15%
    09:00 +33°C° 0 mm 4 mps 668 mmHg 12%
    10:00 +37°C° 0 mm 4 mps 669 mmHg 8%
    11:00 +38°C° 0 mm 4 mps 668 mmHg 8%
    12:00 +41°C° 0 mm 4 mps 667 mmHg 7%
    13:00 +42°C° 0 mm 4 mps 667 mmHg 6%
    14:00 +42°C° 0 mm 4 mps 666 mmHg 6%
    15:00 +42°C° 0 mm 3 mps 665 mmHg 6%
    16:00 +42°C° 0 mm 3 mps 665 mmHg 6%
    17:00 +38°C° 0 mm 3 mps 665 mmHg 7%
    18:00 +35°C° 0 mm 2 mps 665 mmHg 8%
    19:00 +32°C° 0 mm 2 mps 665 mmHg 9%
    20:00 +31°C° 0 mm 2 mps 665 mmHg 10%
    21:00 +30°C° 0 mm 2 mps 665 mmHg 11%
    22:00 +29°C° 0 mm 2 mps 666 mmHg 12%
    23:00 +28°C° 0 mm 3 mps 666 mmHg 13%

    23 September, Sunday

    Time Temperature Precipitation Wind Pressure Humidity
    00:00 +27°C° 0 mm 4 mps 665 mmHg 15%
    01:00 +26°C° 0 mm 4 mps 665 mmHg 17%
    02:00 +25°C° 0 mm 4 mps 665 mmHg 19%
    03:00 +23°C° 0 mm 4 mps 665 mmHg 20%
    04:00 +23°C° 0 mm 4 mps 665 mmHg 21%
    05:00 +23°C° 0 mm 4 mps 665 mmHg 20%
    06:00 +25°C° 0 mm 4 mps 666 mmHg 19%
    07:00 +25°C° 0 mm 4 mps 667 mmHg 17%
    08:00 +28°C° 0 mm 4 mps 667 mmHg 15%
    09:00 +33°C° 0 mm 4 mps 668 mmHg 12%
    10:00 +36°C° 0 mm 3 mps 668 mmHg 9%
    11:00 +38°C° 0 mm 3 mps 667 mmHg 9%
    12:00 +39°C° 0 mm 3 mps 667 mmHg 8%
    13:00 +41°C° 0 mm 2 mps 666 mmHg 8%
    14:00 +41°C° 0 mm 2 mps 666 mmHg 8%
    15:00 +40°C° 0 mm 2 mps 665 mmHg 8%
    16:00 +40°C° 0 mm 1 mps 665 mmHg 8%
    17:00 +37°C° 0 mm 1 mps 665 mmHg 9%
    18:00 +35°C° 0 mm 1 mps 665 mmHg 11%
    19:00 +33°C° 0 mm 1 mps 665 mmHg 12%
    20:00 +32°C° 0 mm 2 mps 665 mmHg 12%
    21:00 +32°C° 0 mm 4 mps 666 mmHg 12%
    22:00 +30°C° 0 mm 5 mps 666 mmHg 13%
    23:00 +29°C° 0 mm 5 mps 666 mmHg 14%

    24 September, Monday

    Time Temperature Precipitation Wind Pressure Humidity
    00:00 +28°C° 0 mm 5 mps 665 mmHg 15%
    01:00 +27°C° 0 mm 5 mps 665 mmHg 16%
    02:00 +25°C° 0 mm 4 mps 665 mmHg 17%
    03:00 +24°C° 0 mm 3 mps 665 mmHg 18%
    04:00 +22°C° 0 mm 3 mps 664 mmHg 19%
    05:00 +24°C° 0 mm 3 mps 665 mmHg 17%
    06:00 +25°C° 0 mm 4 mps 666 mmHg 16%
    07:00 +26°C° 0 mm 4 mps 666 mmHg 15%
    08:00 +29°C° 0 mm 4 mps 667 mmHg 12%
    09:00 +33°C° 0 mm 4 mps 667 mmHg 10%
    10:00 +35°C° 0 mm 4 mps 668 mmHg 8%
    11:00 +37°C° 0 mm 4 mps 667 mmHg 8%
    12:00 +38°C° 0 mm 4 mps 666 mmHg 8%
    13:00 +40°C° 0 mm 4 mps 666 mmHg 7%
    14:00 +39°C° 0 mm 3 mps 665 mmHg 8%
    15:00 +39°C° 0 mm 3 mps 665 mmHg 8%
    16:00 +39°C° 0 mm 3 mps 664 mmHg 8%
    17:00 +36°C° 0 mm 3 mps 664 mmHg 10%
    18:00 +34°C° 0 mm 2 mps 665 mmHg 11%
    19:00 +30°C° 0 mm 2 mps 665 mmHg 13%
    20:00 +29°C° 0 mm 3 mps 665 mmHg 14%
    21:00 +28°C° 0 mm 4 mps 665 mmHg 15%
    22:00 +27°C° 0 mm 5 mps 666 mmHg 16%
    23:00 +25°C° 0 mm 5 mps 665 mmHg 19%

    25 September, Tuesday

    Time Temperature Precipitation Wind Pressure Humidity
    00:00 +22°C° 0 mm 4 mps 665 mmHg 22%
    01:00 +21°C° 0 mm 3 mps 664 mmHg 25%
    02:00 +20°C° 0 mm 3 mps 664 mmHg 26%
    03:00 +19°C° 0 mm 3 mps 664 mmHg 27%
    04:00 +18°C° 0 mm 2 mps 664 mmHg 28%
    05:00 +19°C° 0 mm 2 mps 665 mmHg 26%
    06:00 +21°C° 0 mm 1 mps 666 mmHg 25%
    07:00 +21°C° 0 mm 1 mps 667 mmHg 23%
    08:00 +25°C° 0 mm 1 mps 667 mmHg 19%
    09:00 +28°C° 0 mm 2 mps 668 mmHg 14%
    10:00 +31°C° 0 mm 2 mps 668 mmHg 10%
    11:00 +34°C° 0 mm 3 mps 668 mmHg 9%
    12:00 +35°C° 0 mm 3 mps 667 mmHg 8%
    13:00 +37°C° 0 mm 3 mps 667 mmHg 7%
    14:00 +37°C° 0 mm 3 mps 666 mmHg 8%
    15:00 +37°C° 0 mm 3 mps 666 mmHg 8%
    16:00 +37°C° 0 mm 3 mps 665 mmHg 8%
    17:00 +35°C° 0 mm 3 mps 665 mmHg 10%
    18:00 +31°C° 0 mm 3 mps 665 mmHg 11%
    19:00 +28°C° 0 mm 2 mps 665 mmHg 13%
    20:00 +28°C° 0 mm 3 mps 666 mmHg 13%
    21:00 +27°C° 0 mm 3 mps 666 mmHg 14%
    22:00 +26°C° 0 mm 4 mps 666 mmHg 14%
    23:00 +25°C° 0 mm 4 mps 666 mmHg 15%
    Show more